EHI
0 0 0 0 0 0 0 0 0 0 0 0 0 0 0 0 0 0 0 0 0 0 0 0 0 0 0 0 0 0 0 0 0 0 0 0 0 0
0 0 0 0 0 0 0 0 0 0 0 0 0 0 0 0 0 0 0 0 0 0 0 0 0 0 0 0 0 0 0 0 0 0 0 0 0 0
0 0 0 0 0 0 0 0 0 0 0 0 0 0 0 0 0 0 0 0 0 0 0 0 0 0 0 0 0 0 0 0 0 0 0 0 0 0
0 0 0 0 0 0 0 0 0 0 0 0 0 0 0 0 0 0 0 0 0 0 0 0 0 0 0 0 0 0 0 0 0 0 0 0 0 0
0 0 0 0 0 0 0 0 0 0 0 0 0 0 0 0 0 0 0 0 0 0 0 0 0 0 0 0 0 0 0 0 0 0 0 0 0 0
0 0 0 0 0 0 0 0 0 0 0 0 0 0 0 0 0 0 0 0 0 0 0 0 0 0 0 0 0 0 0 0 0 0 0 0 0 0
0 0 0 0 0 0 0 0 0 0 0 0 0 0 0 0 0 0 0 0 0 0 0 0 0 0 0 0 0 0 0 0 0 0 0 0 0 0
0 0 0 0 0 0 0 0 0 0 0 0 0 0 0 0 0 0 0 0 0 0 0 0 0 0 0 0 0 0 0 0 0 0 0 0 0 0
0 0 0 0 0 0 0 0 0 0 0 0 0 0 0 0 0 0 0 0 0 0 0 0 0 0 0 0 0 0 0 0 0 0 0 0 0 0
0 0 0 0 0 0 0 0 0 0 0 0 0 0 0 0 0 0 0 0 0 0 0 0 0 0 0 0 0 0 0 0 0 0 0 0 0 0
0 0 0 0 0 0 0 0 0 0 0 0 0 0 0 0 0 0 0 0 0 0 0 0 0 0 0 0 0 0 0 0 0 0 0 0 0 0
0 0 0 0 0 0 0 0 0 0 0 0 0 0 0 0 0 0 0 0 0 0 0 0 0 0 0 0 0 0 0 0 0 0 0 0 0 0
0 0 0 0 0 0 0 0 0 0 0 0 0 0 0 0 0 0 0 0 0 0 0 0 0 0 0 0 0 0 0 0 0 0 0 0 0 0
0 0 0 0 0 0 0 0 0 0 0 0 0 0 0 0 0 0 0 0 0 0 0 0 0 0 0 0 0 0 0 0 0 0 0 0 0 0
0 0 0 0 0 0 0 0 0 0 0 0 0 0 0 0 0 0 0 0 0 0 0 0 0 0 0 0 0 0 0 0 0 0 0 0 0 0
0 0 0 0 0 0 0 0 0 0 0 0 0 0 0 0 0 0 0 0 0 0 0 0 0 0 0 0 0 0 0 0 0 0 0 0 0 0
0 0 0 0 0 0 0 0 0 0 0 0 0 0 0 0 0 0 0 0 0 0 0 0 0 0 0 0 0 0 0 0 0 0 0 0 0 0
0 0 0 0 0 0 0 0 0 0 0 0 0 0 0 0 0 0 0 0 0 0 0 0 0 0 0 0 0 0 0 0 0 0 0 0 0 0
0 0 0 0 0 0 0 0 0 0 0 0 0 0 0 0 0 0 0 0 0 0 0 0 0 0 0 0 0 0 0 0 0 0 0 0 0 0
0 0 0 0 0 0 0 0 0 0 0 0 0 0 0 0 0 0 0 0 0 0 0 0 0 0 0 0 0 0 0 0 0 0 0 0 0 0
0 0 0 0 0 0 0 0 0 0 0 0 0 0 0 0 0 0 0 0 0 0 0 0 0 0 0 0 0 0 0 0 0 0 0 0 0 0
0 0 0 0 0 0 0 0 0 0 0 0 0 0 0 0 0 0 0 0 0 0 0 0 0 0 0 0 0 0 0 0 0 0 0 0 0 0
0 0 0 0 0 0 0 0 0 0 0 0 0 0 0 0 0 0 0 0 0 0 0 0 0 0 0 0 0 0 0 0 0 0 0 0 0 0
Wind_Speed
5 5 5 4 4 5 5 5 6 7 7 5 4 4 5 5 6 7 8 10 13 13 14 15 15 15 15 15 15 15 15 16 16 16 16 16 16 16
4 5 5 4 4 4 5 5 6 7 8 5 5 6 7 7 9 9 9 12 13 14 14 15 15 15 15 15 16 16 16 15 15 16 16 16 16 15
5 6 6 6 5 4 5 5 6 6 9 7 6 7 9 9 8 8 8 8 8 12 14 15 15 15 15 15 16 16 16 15 15 15 16 16 16 15
6 6 6 5 6 5 5 6 6 7 8 9 7 7 9 9 9 9 8 7 8 10 13 14 15 15 15 15 15 15 15 14 15 15 15 16 16 15
6 7 7 7 7 6 6 6 6 6 7 7 7 6 7 7 8 8 9 8 8 9 11 12 13 14 14 14 14 14 14 14 14 14 14 15 14 13
6 6 7 7 7 7 7 7 6 6 6 7 6 6 6 7 7 7 7 7 7 7 8 9 11 12 13 14 13 12 13 13 13 13 13 12 11 12
6 6 6 7 8 8 6 6 6 6 6 6 6 6 6 6 6 6 7 7 7 6 6 7 7 7 7 9 10 11 12 12 13 12 11 10 10 10
6 6 6 7 8 10 11 11 9 8 7 7 6 7 8 7 7 6 7 7 7 4 7 8 6 7 6 6 9 11 11 11 10 9 8 9 9 9
6 5 5 5 7 7 8 10 10 11 11 9 9 9 9 8 8 8 8 8 8 7 7 8 7 7 6 6 10 10 10 9 8 8 8 8 8 8
6 6 6 6 6 7 7 7 8 8 8 8 8 9 8 8 8 8 9 9 9 7 6 7 6 6 6 6 7 8 8 8 8 8 8 7 7 7
5 5 6 7 8 9 8 7 7 7 7 9 10 10 11 12 9 6 6 6 7 6 4 5 5 6 6 5 5 6 7 8 8 8 7 7 7 7
5 5 6 7 9 8 7 6 7 7 6 6 7 7 8 8 9 7 6 6 6 5 2 3 4 4 5 3 4 4 5 6 7 8 7 7 7 4
4 4 4 7 8 9 8 6 7 7 6 6 5 5 5 4 5 5 5 5 6 5 4 4 4 4 4 5 5 5 5 4 5 5 5 6 6 5
5 4 4 7 8 8 7 6 8 7 4 4 4 4 4 4 4 5 6 5 6 7 6 5 5 5 5 6 5 4 4 4 4 4 3 4 4 5
4 6 7 7 7 5 5 6 6 4 3 4 4 4 4 5 5 4 5 5 6 5 5 6 6 5 5 6 5 5 5 4 4 3 3 3 3 3
4 5 6 6 5 4 4 4 3 3 3 4 4 4 4 4 4 4 4 4 4 4 4 5 5 6 5 6 5 5 5 4 3 3 3 3 3 3
3 3 2 2 2 3 3 3 3 3 3 3 3 4 4 4 4 4 4 4 4 5 5 4 4 4 5 5 5 4 4 4 4 4 3 3 3 3
3 2 2 2 3 3 3 3 3 3 3 3 3 3 4 4 4 4 4 4 4 4 5 4 4 4 3 2 3 4 4 4 4 3 3 3 4 3
2 2 2 2 2 3 3 3 3 3 3 3 3 3 4 4 4 4 4 4 4 4 4 4 4 4 4 4 2 2 3 4 4 3 3 3 4 4
2 2 3 3 3 3 3 3 3 3 3 3 3 3 3 4 4 4 4 4 5 4 4 3 3 3 4 4 4 4 4 4 3 3 3 3 3 4
2 2 3 3 3 3 3 3 3 3 3 3 3 3 3 3 4 4 4 5 5 4 4 4 4 6 4 3 3 3 3 3 3 3 4 3 3 3
2 2 2 3 3 3 3 3 3 3 3 3 3 3 3 3 4 4 4 4 4 4 4 4 4 4 3 2 3 4 4 4 4 4 4 3 3 2
2 2 2 3 3 2 3 3 3 3 3 3 3 3 3 3 3 3 4 4 4 4 4 3 3 3 3 2 3 3 4 4 4 3 3 3 4 5
Wind_Direction
259 259 258 258 259 262 263 264 274 282 283 286 287 288 300 300 305 299 298 301 301 300 298 298 298 298 299 299 299 297 296 296 295 293 293 292 292 291
259 256 258 259 259 259 260 262 263 271 277 281 287 292 296 293 295 295 295 297 293 294 295 296 295 295 297 297 298 297 294 294 294 293 292 292 291 293
257 255 257 260 260 260 259 259 261 264 271 281 284 290 289 291 293 292 292 292 291 293 294 295 294 294 295 294 294 295 295 293 293 293 291 291 290 289
261 260 260 261 260 261 259 259 261 264 271 280 286 289 290 291 292 292 293 291 289 292 293 294 293 292 292 292 292 293 293 292 292 292 291 290 289 286
262 263 265 265 265 263 262 263 265 267 270 275 284 290 291 291 293 291 291 292 292 291 291 291 292 293 292 293 292 293 294 293 292 293 291 289 286 284
264 264 264 263 265 267 266 266 267 268 270 273 280 286 291 296 294 296 298 299 297 297 293 294 294 294 292 292 292 293 296 295 293 293 292 288 287 285
265 265 265 265 267 269 271 273 270 268 271 274 278 283 287 295 294 297 295 301 298 292 299 298 297 292 290 289 289 295 296 294 294 293 290 288 288 287
263 267 267 263 264 268 271 273 274 272 273 273 275 277 284 290 293 292 294 297 296 300 303 298 295 291 292 292 298 299 298 295 294 299 298 295 288 285
263 267 267 270 273 270 273 273 273 269 268 270 272 276 283 287 289 287 285 288 288 297 298 290 294 291 293 293 299 298 296 297 301 303 303 298 295 286
266 265 266 270 274 278 278 277 277 273 269 265 267 276 282 284 281 283 286 288 286 283 285 283 293 293 298 294 297 301 302 303 305 305 304 300 297 295
270 268 266 269 275 278 278 280 284 284 276 271 276 281 284 283 282 283 282 282 286 288 282 276 292 304 299 291 297 306 308 311 312 312 311 308 303 295
274 271 269 273 280 284 279 278 283 291 295 292 284 283 281 280 279 274 276 278 286 287 289 290 294 308 301 293 310 318 312 309 310 309 312 314 312 301
277 277 278 284 287 288 286 278 283 295 293 291 290 290 291 288 286 284 279 274 275 274 285 293 289 293 283 293 302 307 308 309 310 306 307 312 308 306
275 281 287 291 291 292 291 291 295 294 287 289 288 292 297 300 301 297 291 285 276 276 280 279 276 283 287 288 291 302 307 308 306 307 312 317 307 298
279 289 295 297 295 288 291 298 299 290 287 287 288 294 299 300 302 302 301 293 287 283 281 278 277 278 276 280 285 291 298 298 297 301 307 308 308 306
280 285 288 291 290 293 296 294 293 293 293 288 293 299 303 304 304 306 304 307 302 301 298 291 282 277 279 279 277 282 287 291 300 300 296 296 296 294
294 284 285 292 293 295 296 299 301 300 296 297 297 301 304 304 305 308 304 303 301 305 312 316 307 288 279 282 278 280 288 293 295 301 299 295 293 289
288 281 284 288 289 296 299 300 302 303 304 303 301 301 302 304 306 307 304 303 305 306 309 313 314 308 290 280 275 280 291 299 304 302 294 293 294 296
280 283 286 288 290 293 296 298 300 302 303 300 299 300 299 299 301 305 307 307 307 306 308 312 312 312 311 316 326 311 299 303 305 302 299 294 293 298
290 289 290 291 291 292 295 297 297 299 300 300 299 297 297 297 299 302 304 306 306 306 308 313 317 315 308 307 308 314 320 303 303 306 308 306 297 294
292 288 290 292 291 289 290 290 290 292 297 297 296 298 298 297 300 302 303 306 305 304 309 314 318 318 305 293 293 305 326 335 322 305 307 307 309 312
295 292 291 290 290 288 287 287 288 290 291 291 294 297 299 298 300 303 306 308 308 308 310 314 322 323 322 316 311 314 322 332 337 328 312 295 294 302
296 294 294 293 289 288 288 291 292 290 291 293 294 296 299 299 300 302 305 308 310 315 318 322 330 335 333 323 318 321 328 332 336 345 345 335 299 282